[[{"header":{"parameterUnit":"m.s-1","parameterCategory":1,"la1":30.2991,"la2":30.254,"lo1":-89.0895,"lo2":-89.0444,"dy":0.0017,"dx":0.0017,"nx":28,"ny":28,"refTime":"2024-04-06T21:00:00:Z","depth":0,"parameterNumber":2,"parameterNumberName":"U-component_of_WINDS"},"data":[0,0,0,0,0,0,0,0,0,0,0,0,0,0,0,0,0,0,0,0,0,0,0,0,0,0,0,0,0,0,0,0,0,0,0,0,0,0,0,0,0,0,0,0,0,0,0,0,0,0,0,0,0,0,0,0,0,0,-2.1569,-2.1568,0,-2.1495,-2.1494,-2.1494,-2.1401,-2.14,-2.1398,-2.1397,-2.132,-2.132,-2.1319,0,0,0,0,0,0,0,0,0,0,0,0,0,-2.1632,-2.1632,-2.1569,-2.1568,-2.1567,-2.1495,-2.1494,-2.1493,-2.1401,-2.14,-2.1398,-2.1396,-2.1321,-2.132,-2.1319,0,0,0,0,0,0,0,0,0,0,0,0,0,-2.1586,-2.1631,-2.1569,-2.1513,-2.1507,-2.1496,-2.1494,-2.1493,-2.1402,-2.14,-2.1397,-2.1395,-2.1321,-2.132,-2.1319,-2.1357,0,0,-2.1316,-2.1316,0,0,0,0,0,0,0,0,-2.1589,-2.1584,-2.1522,-2.1517,-2.151,-2.1455,-2.1488,-2.1447,-2.1402,-2.1442,-2.1397,-2.1394,-2.1367,-2.1362,-2.1353,-2.1353,-2.135,-2.1316,-2.1315,-2.1315,-2.1315,0,0,0,0,0,0,0,-2.1592,-2.1587,-2.154,-2.1521,-2.1514,-2.1492,-2.1483,-2.148,-2.1418,-2.1438,-2.1431,-2.1424,-2.1363,-2.1354,-2.1351,-2.1349,-2.1316,-2.1315,-2.1314,-2.1314,-2.1378,-2.138,0,0,0,0,0,0,-2.1604,-2.159,-2.1542,-2.1538,-2.1545,-2.1492,-2.1482,-2.1475,-2.1417,-2.1406,-2.1426,-2.142,-2.1357,-2.1352,-2.1348,-2.1388,-2.1315,-2.1314,-2.1313,-2.1376,-2.1379,-2.1381,0,0,0,0,0,0,-2.1606,-2.1601,-2.1545,-2.1562,-2.1553,-2.1494,-2.1486,-2.1475,-2.1465,-2.1408,-2.1396,-2.1428,-2.1355,-2.1349,-2.1356,-2.1384,-2.1313,-2.1313,-2.1373,-2.1377,-2.138,-2.147,0,0,0,0,0,0,-2.1608,-2.1602,-2.1615,-2.1563,-2.1553,-2.1554,-2.1488,-2.1475,-2.1464,-2.1455,-2.1407,-2.1397,-2.1353,-2.1358,-2.1355,-2.1381,-2.1312,-2.137,-2.1375,-2.1379,-2.1464,-2.1476,-2.1486,0,0,0,0,0,-2.161,-2.1643,-2.1616,-2.1611,-2.1568,-2.1556,-2.155,-2.1499,-2.1467,-2.148,-2.1443,-2.1398,-2.1383,-2.1359,-2.1355,-2.1382,-2.1368,-2.1374,-2.1379,-2.1459,-2.1474,-2.1486,0,0,0,0,0,0,-2.1698,-2.1635,-2.1604,-2.1621,-2.1595,-2.154,-2.1555,-2.1516,-2.1498,-2.1491,-2.1429,-2.1419,-2.1433,-2.1408,-2.1384,-2.1417,-2.1369,-2.1373,-2.1431,-2.1445,-2.1456,-2.146,-2.1311,0,0,0,0,0,-2.172,-2.1716,-2.166,-2.168,-2.1669,-2.1615,-2.1608,-2.1571,-2.1541,-2.153,-2.1493,-2.1467,-2.1455,-2.1449,-2.1436,-2.1461,-2.1449,-2.1478,-2.1489,-2.1499,-2.1502,-2.1515,-2.1527,-2.1398,-2.1398,-2.1398,0,0,-2.1764,-2.1729,-2.1729,-2.1697,-2.1672,-2.1669,-2.1606,-2.1605,-2.1602,-2.1529,-2.1533,-2.1507,-2.1472,-2.1489,-2.1494,-2.1469,-2.1536,-2.1505,-2.1513,-2.1512,-2.1522,-2.1534,-2.1545,-2.1402,-2.1401,-2.1401,0,0,-2.1842,-2.1815,-2.1829,-2.1806,-2.177,-2.1735,-2.1739,-2.1691,-2.167,-2.1674,-2.1619,-2.1616,-2.1598,-2.1576,-2.1563,-2.1637,-2.1595,-2.1635,-2.1691,-2.1704,-2.1714,-2.1723,-2.1749,-2.1759,-2.1639,-2.164,-2.164,0,-2.19,-2.1893,-2.1841,-2.1844,-2.1831,-2.1767,-2.1781,-2.1762,-2.1724,-2.1717,-2.1689,-2.1667,-2.1639,-2.165,-2.1669,-2.166,-2.1663,-2.1638,-2.1717,-2.1725,-2.1733,-2.1757,-2.1766,-2.1645,-2.1644,-2.1644,-2.1643,0,-2.1967,-2.1964,-2.1979,-2.1945,-2.1935,-2.1943,-2.1893,-2.1889,-2.1855,-2.1823,-2.1828,-2.1793,-2.1772,-2.1773,-2.1739,-2.178,-2.1765,-2.1729,-2.1679,-2.1751,-2.1772,-2.1781,-2.1652,-2.165,-2.1648,-2.1647,0,0,-2.2094,-2.2033,-2.204,-2.2024,-2.1981,-2.1977,-2.1985,-2.1965,-2.1963,-2.194,-2.1944,-2.1932,-2.1899,-2.1884,-2.1848,-2.1859,-2.192,-2.1821,-2.182,-2.184,-2.1963,-2.1989,-2.2,-2.1894,-2.1895,-2.1896,-2.1965,0,-2.2163,-2.217,-2.2125,-2.2144,-2.214,-2.2081,-2.2087,-2.2063,-2.2034,-2.2027,-2.1995,-2.1988,-2.1945,-2.1935,-2.1945,-2.1911,-2.1944,-2.1906,-2.1896,-2.1896,-2.1904,-2.2011,-2.2038,-2.2105,-2.1973,-2.1975,-2.1976,0,-2.2243,-2.2225,-2.2245,-2.2203,-2.22,-2.2206,-2.2185,-2.2179,-2.2151,-2.2129,-2.2115,-2.2074,-2.2078,-2.2034,-2.2039,-2.2014,-2.2009,-2.1992,-2.1993,-2.1988,-2.1938,-2.2008,-2.2125,-2.2134,-2.1989,-2.1988,-2.1987,0,-2.2333,-2.2314,-2.2323,-2.2312,-2.2263,-2.2269,-2.225,-2.2219,-2.2211,-2.2193,-2.2187,-2.2171,-2.2161,-2.215,-2.2106,-2.2078,-2.2117,-2.2068,-2.2099,-2.21,-2.2107,-2.2106,-2.2223,-2.2107,-2.2107,-2.2107,-2.2107,0,-2.2412,-2.2426,-2.2363,-2.2368,-2.2383,-2.2332,-2.2347,-2.2322,-2.2296,-2.2296,-2.2245,-2.2246,-2.2189,-2.2185,-2.2151,-2.2161,-2.2157,-2.214,-2.213,-2.2143,-2.2145,-2.2136,-2.213,-2.2109,-2.2109,-2.2108,-2.2108,0,-2.2513,-2.2471,-2.2477,-2.2433,-2.2422,-2.2434,-2.2396,-2.24,-2.2369,-2.237,-2.2368,-2.232,-2.2312,-2.2268,-2.225,-2.2227,-2.2249,-2.2231,-2.2258,-2.2251,-2.2284,-2.2281,-2.2396,-2.2409,-2.2288,-2.2289,-2.229,0,-2.2566,-2.2575,-2.2532,-2.2528,-2.2511,-2.2506,-2.2498,-2.245,-2.2443,-2.2413,-2.2421,-2.2409,-2.2397,-2.2387,-2.2351,-2.2338,-2.2318,-2.236,-2.2315,-2.2328,-2.2317,-2.2316,-2.2317,-2.2368,-2.237,-2.2371,-2.2372,0,-2.2663,-2.2643,-2.2632,-2.2616,-2.2608,-2.2593,-2.2574,-2.2575,-2.2521,-2.2517,-2.2509,-2.2499,-2.2482,-2.2471,-2.2452,-2.2432,-2.2393,-2.2387,-2.2393,-2.2405,-2.242,-2.2411,-2.2282,-2.2384,-2.2383,-2.2382,-2.2381,-2.2381,-2.274,-2.2746,-2.2717,-2.2708,-2.269,-2.2675,-2.2676,-2.2647,-2.2639,-2.2621,-2.2593,-2.2589,-2.2563,-2.2533,-2.2517,-2.2514,-2.2491,-2.25,-2.2502,-2.2504,-2.2511,-2.2423,-2.251,-2.251,-2.2509,-2.2509,-2.2509,0,-2.2834,-2.2813,-2.2806,-2.2782,-2.2776,-2.2742,-2.272,-2.2717,-2.2714,-2.2693,-2.2683,-2.2674,-2.2664,-2.2629,-2.2615,-2.2619,-2.2601,-2.2617,-2.2615,-2.2611,-2.2532,-2.2528,-2.2632,-2.2632,-2.2632,-2.2632,-2.2632,-2.2632,-2.2881,-2.289,-2.2867,-2.2866,-2.2845,-2.2841,-2.2832,-2.2818,-2.2801,-2.2793,-2.2785,-2.2763,-2.2736,-2.2721,-2.2711,-2.2701,-2.2697,-2.2719,-2.2703,-2.2629,-2.2617,-2.2606,-2.2601,-2.2719,-2.2719,-2.2782,-2.2783,-2.2783]},{"header":{"parameterUnit":"m.s-1","parameterCategory":1,"la1":30.2991,"la2":30.254,"lo1":-89.0895,"lo2":-89.0444,"dy":0.0017,"dx":0.0017,"nx":28,"ny":28,"refTime":"2024-04-06T21:00:00:Z","depth":0,"parameterNumber":3,"parameterNumberName":"V-component_of_WINDS"},"data":[0,0,0,0,0,0,0,0,0,0,0,0,0,0,0,0,0,0,0,0,0,0,0,0,0,0,0,0,0,0,0,0,0,0,0,0,0,0,0,0,0,0,0,0,0,0,0,0,0,0,0,0,0,0,0,0,0,0,3.2913,3.2913,0,3.2957,3.2958,3.2958,3.3019,3.302,3.3021,3.3022,3.3064,3.3064,3.3064,0,0,0,0,0,0,0,0,0,0,0,0,0,3.2877,3.2878,3.2913,3.2913,3.2914,3.2957,3.2958,3.2959,3.3019,3.302,3.3021,3.3023,3.3064,3.3064,3.3064,0,0,0,0,0,0,0,0,0,0,0,0,0,3.2904,3.2878,3.2913,3.2949,3.2953,3.2957,3.2958,3.2959,3.3019,3.302,3.3022,3.3023,3.3064,3.3064,3.3064,3.3034,0,0,3.3065,3.3065,0,0,0,0,0,0,0,0,3.2903,3.2905,3.2943,3.2947,3.2951,3.2984,3.2961,3.2984,3.3018,3.2994,3.3022,3.3024,3.3036,3.3038,3.3043,3.3036,3.3038,3.3065,3.3065,3.3065,3.3065,0,0,0,0,0,0,0,3.2901,3.2904,3.293,3.2944,3.2949,3.2963,3.2968,3.2965,3.3005,3.2996,3.3,3.3005,3.3038,3.3043,3.3045,3.3039,3.3065,3.3065,3.3065,3.3065,3.3011,3.301,0,0,0,0,0,0,3.2894,3.2902,3.2929,3.2932,3.293,3.2962,3.2968,3.2972,3.3006,3.3012,3.3004,3.3008,3.3042,3.3044,3.3046,3.3015,3.3065,3.3065,3.3065,3.3013,3.3011,3.3009,0,0,0,0,0,0,3.2893,3.2896,3.2927,3.2918,3.2923,3.2961,3.2965,3.2972,3.2977,3.3012,3.3019,3.3001,3.3043,3.3046,3.3038,3.3017,3.3065,3.3065,3.3015,3.3012,3.301,3.2951,0,0,0,0,0,0,3.2892,3.2895,3.2885,3.2917,3.2924,3.2918,3.2964,3.2972,3.2978,3.2983,3.3011,3.3017,3.3044,3.3037,3.3038,3.3018,3.3066,3.3017,3.3013,3.3011,3.2955,3.2947,3.294,0,0,0,0,0,3.289,3.2865,3.2884,3.2887,3.2912,3.2917,3.292,3.2953,3.2976,3.2965,3.2988,3.3016,3.3019,3.3035,3.3037,3.3017,3.3018,3.3014,3.3011,3.2958,3.2948,3.294,0,0,0,0,0,0,3.2827,3.287,3.2891,3.2876,3.2893,3.2927,3.2915,3.2942,3.2951,3.2956,3.2995,3.3001,3.2987,3.3001,3.3019,3.2991,3.3023,3.3019,3.2982,3.2973,3.2966,3.2963,3.3066,0,0,0,0,0,3.2812,3.2814,3.2851,3.2834,3.2841,3.2877,3.288,3.2904,3.2922,3.2929,3.2951,3.2966,3.2971,3.2973,3.2979,3.2957,3.2964,3.2944,3.2937,3.2931,3.2927,3.2918,3.2909,3.2998,3.2998,3.2998,0,0,3.2779,3.2803,3.2801,3.2822,3.2837,3.2838,3.2882,3.288,3.2881,3.2928,3.2922,3.2939,3.2959,3.2944,3.2938,3.2955,3.2905,3.2926,3.2921,3.2921,3.2913,3.2905,3.2897,3.2995,3.2996,3.2996,0,0,3.2721,3.2739,3.2728,3.2743,3.2767,3.2791,3.2788,3.2819,3.2832,3.2827,3.2863,3.2864,3.2871,3.2884,3.2891,3.2839,3.2866,3.284,3.2801,3.2791,3.2784,3.2778,3.276,3.2753,3.2836,3.2836,3.2836,0,3.2677,3.268,3.2718,3.2715,3.2723,3.2768,3.2756,3.2769,3.2792,3.2796,3.2815,3.2826,3.2842,3.2832,3.2819,3.2824,3.2821,3.2837,3.2782,3.2777,3.2772,3.2755,3.2748,3.2833,3.2833,3.2834,3.2834,0,3.2626,3.2628,3.2615,3.264,3.2646,3.2638,3.2674,3.2676,3.27,3.2722,3.2716,3.2738,3.2749,3.2749,3.2771,3.2741,3.2751,3.2775,3.2808,3.2759,3.2744,3.2738,3.2828,3.2829,3.283,3.2831,0,0,3.2528,3.2574,3.2569,3.2581,3.2611,3.2613,3.2607,3.2621,3.2622,3.2636,3.2633,3.2638,3.2662,3.267,3.2695,3.2686,3.2644,3.2712,3.2713,3.2699,3.2613,3.2595,3.2587,3.2662,3.2661,3.266,3.2612,0,3.2476,3.247,3.2505,3.249,3.2492,3.2535,3.2531,3.2548,3.2569,3.2573,3.2595,3.2599,3.2629,3.2635,3.2628,3.2651,3.2627,3.2655,3.2658,3.2658,3.2652,3.2579,3.2559,3.2512,3.2606,3.2605,3.2604,0,3.2414,3.2427,3.2413,3.2446,3.2448,3.2443,3.2458,3.2462,3.2483,3.2498,3.2508,3.2537,3.2533,3.2565,3.256,3.2578,3.2582,3.2593,3.2592,3.2594,3.2628,3.2578,3.2498,3.2491,3.2595,3.2596,3.2596,0,3.2344,3.2359,3.2353,3.2362,3.2399,3.2395,3.241,3.2432,3.2439,3.2451,3.2456,3.2467,3.2474,3.2482,3.2513,3.2533,3.2504,3.2538,3.2517,3.2516,3.2509,3.2509,3.2427,3.251,3.251,3.2511,3.2511,0,3.2282,3.2272,3.2323,3.2319,3.2309,3.2348,3.2336,3.2355,3.2375,3.2376,3.2413,3.2412,3.2453,3.2457,3.2481,3.2473,3.2476,3.2488,3.2494,3.2485,3.2483,3.2487,3.2491,3.2509,3.2509,3.251,3.251,0,3.2203,3.2237,3.2233,3.2269,3.2278,3.2269,3.23,3.2297,3.2321,3.232,3.2323,3.2359,3.2365,3.2397,3.241,3.2426,3.241,3.2423,3.2404,3.2408,3.2385,3.2386,3.2304,3.2295,3.2383,3.2382,3.2381,0,3.2161,3.2155,3.2191,3.2195,3.2209,3.2214,3.2221,3.2259,3.2265,3.2289,3.2283,3.2293,3.2303,3.231,3.2337,3.2347,3.2361,3.2331,3.2362,3.2353,3.2361,3.2361,3.2361,3.2324,3.2323,3.2322,3.2321,0,3.2084,3.2102,3.2111,3.2126,3.2134,3.2148,3.2163,3.2164,3.2206,3.221,3.2218,3.2226,3.224,3.2249,3.2264,3.2279,3.2307,3.2311,3.2307,3.2297,3.2286,3.2292,3.2386,3.2313,3.2314,3.2314,3.2315,3.2315,3.2023,3.202,3.2045,3.2055,3.2071,3.2085,3.2085,3.2109,3.2117,3.2133,3.2154,3.2159,3.2181,3.2204,3.2217,3.222,3.2236,3.223,3.2228,3.2226,3.2221,3.2286,3.2223,3.2223,3.2224,3.2224,3.2224,0,3.1948,3.1967,3.1976,3.1998,3.2005,3.2032,3.2051,3.2055,3.206,3.2078,3.2088,3.2097,3.2106,3.2134,3.2146,3.2143,3.2156,3.2145,3.2146,3.2149,3.2206,3.2209,3.2134,3.2134,3.2134,3.2134,3.2134,3.2134,3.191,3.1907,3.1927,3.1932,3.1951,3.1957,3.1966,3.1979,3.1994,3.2003,3.2011,3.203,3.2052,3.2066,3.2076,3.2084,3.2086,3.2071,3.2083,3.2136,3.2144,3.2153,3.2156,3.2071,3.2071,3.2025,3.2024,3.2024]}]]